Retour au catalogue

LEMUR 2 ROUNDTRIPPER

ActifScienceSSO
NORAD 62711·PAYLOAD·🇺🇸 United States

Lancé Jan 14, 2025 depuis Vandenberg Space Force Base

Loading…

Prochains Passages (prochaines 24 heures)

TLE

FraisSource: Space-Track

Époque: Sep 14, 2026, 11:39 UTC

1 62711U 25009DG  26257.48573392  .00006816  00000-0  48416-3 0  9993
2 62711  97.7203 340.0912 0003718 170.3824 189.7474 15.05027440 91053

Suivez LEMUR 2 ROUNDTRIPPER en temps réel avec AllMySat

Download on the App Store